Weather History for Del Rio, TX

Change the Weather History Date:

Sunday, May 11, 2014

  Actual Average Record
Temperature  
Mean Temperature 81 °F 78 °F  
Max Temperature 90 °F 89 °F 103 °F (1967)
Min Temperature 72 °F 67 °F 53 °F (1981)
Degree Days  
Heating Degree Days 0 0  
Month to date heating degree days 0 0  
Since 1 July heating degree days 1555 1375  
Cooling Degree Days 16 13  
Month to date cooling degree days 156 129  
Year to date cooling degree days 576 458  
Growing Degree Days 30 (Base 50)    
Moisture  
Dew Point 67 °F    
Average Humidity 66    
Maximum Humidity 84    
Minimum Humidity 47    
Precipitation  
Precipitation 0.00 in 0.09 in 1.34 in (1950)
Month to date precipitation T 0.82  
Year to date precipitation 0.62 5.21  
Sea Level Pressure  
Sea Level Pressure 29.66 in    
Wind  
Wind Speed 18 mph (SE)    
Max Wind Speed 29 mph    
Max Gust Speed 37 mph    
Visibility 10 miles    
Events      
T = Trace of Precipitation, MM = Missing Value Source: NWS Daily Summary

Daily Weather History Graph

Daily Weather History Graph

Search for Another Location

Airport:

Trip Planner

Search our weather history database for the weather conditions in past years. The results will help you decide how hot, cold, wet, or windy it might be!

Date:

Astronomy

May. 11, 2014 Rise Set
Actual Time 6:54 AM CDT 8:26 PM CDT
Civil Twilight 6:28 AM CDT 8:52 PM CDT
Nautical Twilight 5:57 AM CDT 9:23 PM CDT
Astronomical Twilight 5:25 AM CDT 9:55 PM CDT
Moon 5:37 PM CDT (5/11) 4:44 AM CDT (5/11)
Length of Visible Light 14h 24m
Length of Day
13h 32m
Waxing Gibbous, 89% of the Moon is Illuminated
May 11
Waxing Gibbous
May 14
Full
May 21
Last Quarter
May 28
New
Jun 5
First Quarter

Hourly Weather History & Observations

Time (CDT) Temp. Heat Index Dew Point Humidity Pressure Visibility Wind Dir Wind Speed Gust Speed Precip Events Conditions
12:53 AM 80.1 °F 81.7 °F 64.0 °F 58% 29.68 in 10.0 mi ESE 16.1 mph 24.2 mph N/A   Clear
1:53 AM 78.1 °F - 66.9 °F 68% 29.68 in 10.0 mi ESE 18.4 mph 25.3 mph N/A   Clear
2:40 AM 77.0 °F - 68.0 °F 74% 29.72 in 10.0 mi ESE 16.1 mph 27.6 mph N/A   Mostly Cloudy
2:53 AM 77.0 °F - 68.0 °F 74% 29.67 in 10.0 mi ESE 20.7 mph 28.8 mph N/A   Overcast
3:31 AM 75.9 °F - 66.9 °F 74% 29.71 in 10.0 mi ESE 19.6 mph 27.6 mph N/A   Overcast
3:53 AM 75.0 °F - 66.9 °F 76% 29.66 in 10.0 mi ESE 16.1 mph 26.5 mph N/A   Overcast
4:09 AM 75.0 °F - 66.9 °F 76% 29.71 in 10.0 mi ESE 15.0 mph 26.5 mph N/A   Overcast
4:43 AM 73.9 °F - 66.9 °F 79% 29.72 in 10.0 mi ESE 13.8 mph 24.2 mph N/A   Overcast
4:53 AM 73.9 °F - 66.9 °F 79% 29.66 in 10.0 mi ESE 11.5 mph 21.9 mph N/A   Overcast
5:14 AM 73.9 °F - 66.9 °F 79% 29.72 in 10.0 mi ESE 17.3 mph 23.0 mph N/A   Overcast
5:53 AM 73.0 °F - 66.0 °F 79% 29.66 in 10.0 mi ESE 12.7 mph 25.3 mph N/A   Overcast
6:53 AM 72.0 °F - 66.0 °F 81% 29.68 in 10.0 mi ESE 13.8 mph 25.3 mph N/A   Overcast
7:24 AM 72.0 °F - 66.0 °F 81% 29.74 in 10.0 mi ESE 12.7 mph 20.7 mph N/A   Overcast
7:51 AM 71.6 °F - 66.2 °F 83% 29.75 in 10.0 mi SE 11.5 mph 21.9 mph N/A   Overcast
7:53 AM 72.0 °F - 66.0 °F 81% 29.70 in 10.0 mi ESE 11.5 mph 21.9 mph N/A   Overcast
8:53 AM 72.0 °F - 66.0 °F 81% 29.71 in 10.0 mi ESE 18.4 mph 27.6 mph N/A   Overcast
9:53 AM 73.0 °F - 66.0 °F 79% 29.72 in 10.0 mi ESE 19.6 mph 26.5 mph N/A   Overcast
10:53 AM 73.0 °F - 66.9 °F 81% 29.72 in 10.0 mi ESE 17.3 mph 26.5 mph N/A   Overcast
11:53 AM 75.0 °F - 66.9 °F 76% 29.71 in 10.0 mi SE 19.6 mph 25.3 mph N/A   Overcast
12:28 PM 75.9 °F - 66.9 °F 74% 29.75 in 10.0 mi ESE 15.0 mph - N/A   Overcast
12:53 PM 75.9 °F - 68.0 °F 76% 29.70 in 10.0 mi SE 13.8 mph 24.2 mph N/A   Overcast
1:53 PM 78.1 °F - 68.0 °F 71% 29.67 in 10.0 mi SE 18.4 mph - N/A   Overcast
2:53 PM 84.0 °F 87.0 °F 68.0 °F 58% 29.62 in 10.0 mi SE 24.2 mph 29.9 mph N/A   Overcast
3:01 PM 84.0 °F 87.0 °F 68.0 °F 58% 29.67 in 10.0 mi SE 21.9 mph 29.9 mph N/A   Overcast
3:53 PM 84.9 °F 88.2 °F 68.0 °F 57% 29.58 in 10.0 mi SE 25.3 mph 34.5 mph N/A   Mostly Cloudy
4:53 PM 86.0 °F 89.4 °F 68.0 °F 55% 29.57 in 10.0 mi SE 19.6 mph 32.2 mph N/A   Mostly Cloudy
5:53 PM 89.1 °F 92.1 °F 66.9 °F 48% 29.54 in 10.0 mi SE 24.2 mph 34.5 mph N/A   Partly Cloudy
6:53 PM 89.1 °F 92.9 °F 68.0 °F 50% 29.54 in 10.0 mi SE 19.6 mph 29.9 mph N/A   Scattered Clouds
7:53 PM 89.1 °F 92.1 °F 66.9 °F 48% 29.54 in 10.0 mi SE 18.4 mph 25.3 mph N/A   Partly Cloudy
8:53 PM 87.1 °F 90.6 °F 68.0 °F 53% 29.56 in 10.0 mi SE 17.3 mph 25.3 mph N/A   Partly Cloudy
9:53 PM 86.0 °F 89.4 °F 68.0 °F 55% 29.59 in 10.0 mi SE 16.1 mph 26.5 mph N/A   Clear
10:53 PM 86.0 °F 90.4 °F 69.8 °F 58% 29.65 in 10.0 mi ESE 16.1 mph 27.6 mph N/A   Clear
11:53 PM 82.9 °F 87.5 °F 71.1 °F 67% 29.62 in 10.0 mi ESE 15.0 mph 25.3 mph N/A   Clear